RH
2 2 2 2 2 3 4 7 10 13 16 18 21 24 27 29 30 30 30 30 31 31 31 32 31 30 30 29 29 30 30 30 31 31 31 33 33 26 20 19 16 12 13 14 16 19 22 26 28 29 28 27 31 32 33 48 65 70 70 70 69 66 59 57 57 52 43 35 28 25 24 23 21 20 19 19 20 20 20 20 20 18 16 15 11
5 4 4 5 7 9 12 15 19 23 25 27 30 33 34 36 37 36 35 33 31 31 31 31 33 34 35 35 35 35 35 35 35 35 35 34 36 32 24 21 19 16 13 13 14 16 18 22 26 28 27 26 30 32 33 41 52 61 69 73 72 66 53 45 46 45 40 34 29 25 23 21 21 20 19 20 20 21 21 22 22 21 18 16 12
16 15 14 15 17 18 20 23 26 29 31 33 36 38 41 44 44 42 39 36 33 32 32 32 32 34 37 38 39 39 38 38 38 37 37 36 36 36 29 23 21 20 17 14 14 15 17 20 24 28 28 28 30 32 33 35 37 46 63 71 70 66 55 46 45 44 39 34 28 24 22 21 21 21 21 22 22 23 23 23 24 23 20 17 12
26 27 26 25 24 24 26 28 32 34 35 38 39 41 44 46 47 46 43 39 37 35 34 33 33 34 37 39 41 41 40 40 39 38 38 36 35 36 34 26 21 22 21 17 15 16 18 20 23 27 29 29 30 31 32 33 32 37 50 58 63 67 62 54 55 55 51 46 38 30 25 23 23 23 24 25 25 26 26 26 26 25 22 18 12
28 30 32 32 31 31 31 33 37 39 41 43 44 45 45 47 50 50 46 42 38 35 32 31 31 32 34 36 37 39 40 39 38 36 35 35 34 34 35 31 23 22 23 21 17 17 19 20 21 24 28 30 31 31 29 31 32 32 36 41 51 64 68 62 58 59 58 56 52 46 39 33 32 32 32 33 34 35 35 34 31 28 23 18 12
30 30 33 36 37 36 36 37 40 43 46 48 48 49 48 49 52 50 46 41 35 31 29 27 25 24 24 25 26 28 30 30 30 30 29 29 32 32 34 34 28 23 24 24 20 17 18 19 19 21 24 28 32 32 29 28 29 31 31 32 40 57 71 68 60 58 60 59 57 56 54 50 46 46 47 47 48 50 51 48 41 33 25 17 12
27 27 32 38 40 40 39 40 43 48 51 51 51 52 51 51 52 49 44 38 32 29 26 23 20 17 15 15 15 15 17 18 18 19 19 21 25 28 31 34 33 26 23 26 24 19 18 19 19 20 24 28 31 33 31 27 26 28 30 31 34 47 63 68 64 62 62 60 58 58 60 61 58 57 58 59 58 59 62 61 52 37 24 16 12
29 33 38 42 43 45 44 43 46 50 54 55 54 52 53 53 52 49 42 36 32 29 24 21 19 17 16 14 12 12 12 13 15 16 17 17 18 22 25 29 32 28 23 23 24 22 19 18 19 22 25 28 30 31 32 29 26 26 28 30 32 38 47 54 58 63 64 62 59 58 61 65 65 64 65 65 63 63 65 64 53 35 21 15 11
41 44 47 48 49 50 50 47 49 53 56 59 57 54 54 55 53 49 42 37 34 29 24 22 22 23 23 19 16 15 15 15 16 17 18 19 19 20 23 25 27 26 22 20 22 22 20 18 19 21 23 27 28 29 31 32 28 26 27 29 32 36 42 46 51 58 63 63 61 59 60 63 66 66 66 66 66 65 64 58 45 30 20 15 11
44 47 50 52 54 55 54 51 51 55 60 61 58 55 54 55 53 49 43 39 35 29 25 25 27 31 33 29 26 24 23 23 20 16 15 16 16 17 20 23 23 21 18 16 18 20 21 20 19 19 20 23 27 29 30 30 30 27 27 29 32 35 41 48 53 57 60 62 61 59 57 58 63 66 67 68 67 65 61 51 37 27 20 15 11
42 49 54 56 57 57 56 54 53 56 60 59 55 53 54 54 53 48 44 42 37 30 27 28 32 39 42 43 42 38 36 35 32 26 20 16 13 12 14 17 18 16 14 14 16 18 20 21 21 20 19 20 24 30 31 29 30 30 29 31 35 38 41 48 55 58 60 61 61 58 54 54 58 62 66 69 69 67 63 52 39 29 23 16 11
36 47 56 59 61 61 59 58 57 59 59 54 50 50 52 53 51 47 46 45 39 33 32 34 37 43 48 52 54 52 48 46 44 39 33 26 21 15 12 11 12 12 12 12 14 17 19 21 22 23 22 21 22 28 32 31 29 30 32 33 36 41 44 48 53 57 61 63 63 60 56 54 57 62 66 70 71 70 70 65 51 36 26 19 12
27 41 53 58 61 62 61 61 60 58 54 50 46 46 49 50 48 46 47 48 44 38 38 40 42 46 50 54 58 59 58 55 50 45 41 38 33 26 20 16 12 11 11 11 13 16 18 21 23 24 25 24 23 25 30 33 31 30 33 36 37 41 45 47 50 56 61 64 67 67 61 57 59 64 68 73 76 75 75 76 69 52 34 22 14
25 36 49 58 62 62 61 60 57 53 49 46 43 43 45 46 46 45 46 48 48 46 45 47 48 50 52 54 58 61 61 59 54 48 44 44 42 37 30 25 20 17 14 13 13 14 17 20 22 23 25 26 26 27 29 33 34 32 33 36 37 38 42 46 49 54 59 63 67 71 68 62 60 62 65 70 79 85 83 81 82 71 50 29 16
31 34 39 48 54 56 54 51 47 45 44 43 42 41 42 44 45 46 49 51 53 53 52 52 52 54 56 57 59 61 60 59 56 51 47 46 45 42 37 33 31 29 25 22 19 17 18 18 19 21 22 23 25 29 31 33 34 35 35 36 38 38 39 44 50 53 57 62 66 71 71 67 62 62 62 63 73 83 84 84 87 84 66 40 18
39 37 31 29 32 36 38 39 39 42 44 45 45 45 44 47 51 52 53 53 55 56 55 55 57 59 61 61 60 59 57 55 53 52 50 47 46 44 41 38 37 36 35 33 31 28 25 23 21 20 20 20 22 27 31 32 33 35 36 36 38 39 39 45 52 54 56 62 66 68 68 66 64 63 63 63 67 71 73 80 89 92 80 52 23
43 41 33 28 29 33 37 40 41 45 48 50 53 54 53 54 55 54 53 52 52 54 56 60 62 63 63 63 60 59 56 52 51 53 55 56 55 52 49 47 44 42 41 39 38 38 36 35 32 29 26 24 23 25 29 30 30 33 36 37 38 38 39 45 53 56 59 64 67 66 64 63 63 64 64 64 67 67 67 74 87 96 90 63 30
48 46 44 42 44 46 47 50 50 50 53 56 59 61 61 61 60 57 54 52 51 53 56 59 60 61 61 61 61 61 60 58 59 59 58 59 61 61 61 60 57 54 51 47 44 43 42 43 42 40 39 37 34 31 30 29 29 32 34 36 37 37 39 45 51 56 60 65 68 67 65 62 63 66 66 65 67 68 67 72 85 97 96 71 36
51 54 54 54 56 56 54 54 54 52 54 58 62 63 61 59 59 55 52 51 51 52 54 55 57 59 59 60 62 64 64 66 67 65 59 55 54 55 57 58 61 63 62 59 55 52 49 47 46 47 48 49 49 48 44 39 37 37 37 38 38 38 42 47 50 55 61 64 66 66 64 63 64 66 66 67 67 67 68 74 86 99 100 77 42
48 55 58 58 61 60 54 50 50 51 54 57 60 60 57 53 50 47 44 44 47 50 53 54 55 56 56 56 57 59 62 64 67 68 67 62 55 50 46 44 49 58 63 63 61 58 56 52 50 52 54 53 55 60 62 59 55 51 49 47 44 42 45 47 48 53 59 62 65 66 63 63 67 69 69 69 68 66 69 78 89 98 102 85 50
44 53 58 61 62 57 49 45 48 52 56 57 57 58 57 53 50 49 47 45 46 50 54 54 52 52 53 53 55 57 59 60 62 65 66 60 53 48 43 38 38 45 54 59 58 57 58 55 53 55 58 58 61 65 70 73 73 70 66 63 59 53 52 53 54 56 60 62 64 65 63 63 69 76 79 76 72 70 73 81 90 97 103 94 60
38 48 54 58 58 53 48 47 49 50 51 55 58 59 59 58 58 59 60 57 55 54 57 57 54 52 52 54 57 59 61 64 64 60 54 50 48 49 48 44 39 37 40 45 48 55 61 60 56 55 56 57 60 63 67 71 77 79 75 72 71 67 62 63 65 66 67 69 71 72 71 72 76 81 85 85 85 87 86 87 91 95 102 101 72
28 37 44 50 53 55 56 57 58 57 55 56 57 57 58 57 58 60 62 61 58 56 57 59 57 54 54 55 55 52 52 54 54 48 42 43 48 55 61 61 55 49 43 38 40 52 62 65 64 61 60 61 62 62 62 65 72 79 79 77 78 78 76 73 72 74 78 82 87 89 89 90 89 89 89 90 94 99 98 95 96 96 101 104 78
17 23 29 35 44 55 60 63 64 64 64 61 57 55 55 53 51 54 56 55 52 50 51 53 53 53 53 52 47 40 37 38 37 34 38 48 58 66 73 74 72 67 60 51 46 48 53 59 59 50 46 52 58 61 62 63 68 75 79 79 79 83 85 80 76 82 88 89 96 100 97 96 99 98 96 93 92 98 101 100 100 98 100 102 77
11 14 18 24 35 44 53 60 64 64 63 62 58 58 59 57 53 53 52 46 41 40 42 45 46 46 45 43 40 37 36 35 32 30 38 57 71 76 79 83 81 72 66 63 62 61 63 66 61 47 39 43 50 54 57 60 66 72 75 74 72 74 80 80 82 90 90 85 93 98 90 90 97 99 98 97 95 98 101 100 99 100 102 99 73
9 11 14 21 30 37 43 52 57 57 58 57 55 55 57 56 53 51 46 39 33 32 33 36 38 38 37 38 41 42 39 36 33 31 37 55 72 77 80 82 73 58 50 50 56 66 73 73 63 51 43 41 42 43 45 48 54 58 60 61 63 66 72 75 78 85 83 80 89 95 87 86 91 92 94 98 99 100 100 98 98 101 103 96 68
10 10 12 17 25 33 39 45 49 51 53 54 52 51 50 47 44 42 38 34 30 29 29 30 31 32 32 33 35 36 33 30 33 38 41 49 62 68 66 60 49 39 36 39 48 62 68 63 56 53 53 51 52 57 61 63 66 67 67 68 70 72 77 76 74 79 84 82 87 94 93 92 92 91 92 98 101 101 99 97 97 101 104 94 64
12 11 11 13 18 22 26 31 36 39 41 42 42 41 40 37 35 33 33 32 31 31 30 31 32 33 33 32 29 29 29 29 37 46 47 45 49 51 46 38 33 31 31 37 51 61 57 47 45 49 52 51 50 54 60 65 69 73 75 78 82 85 86 84 79 82 86 83 83 88 91 90 91 90 93 98 99 99 99 98 98 100 103 92 63
15 13 12 12 13 15 16 18 21 23 24 26 27 27 28 29 30 32 33 35 35 35 34 34 34 33 32 31 29 32 38 44 51 54 48 39 37 38 36 35 35 34 32 35 45 48 43 37 36 37 38 36 33 33 39 43 48 53 56 60 68 74 75 73 72 74 74 74 80 86 85 82 85 90 95 98 94 93 97 100 99 101 103 89 60
18 16 14 13 13 15 15 16 18 19 19 21 22 24 26 29 31 34 35 36 36 36 33 30 28 27 26 27 30 35 43 50 54 51 43 34 31 32 35 38 39 39 39 41 42 41 38 36 36 35 36 36 34 36 43 49 55 60 61 59 62 67 68 65 62 62 63 71 84 93 90 85 87 95 100 95 86 89 99 101 98 101 100 82 53
21 19 18 17 17 17 18 19 20 21 21 21 22 24 26 29 30 31 31 31 30 28 26 24 24 24 25 26 29 33 38 41 41 39 36 34 33 33 34 37 39 39 40 41 41 39 36 34 33 33 35 38 40 42 46 52 60 68 71 69 68 69 68 63 59 61 70 80 87 89 89 89 93 100 101 92 85 93 102 101 99 102 94 70 44
24 23 22 22 22 22 22 23 23 24 24 23 23 23 24 25 26 26 26 26 25 24 24 25 28 31 32 31 31 33 35 36 35 34 34 34 34 34 33 34 35 35 34 33 33 32 31 31 32 33 34 36 37 38 39 41 46 52 59 65 69 67 65 67 71 76 81 80 74 72 77 86 95 100 99 91 91 98 101 99 101 98 82 57 35
25 25 24 24 24 25 26 26 26 26 25 25 24 24 24 25 26 26 27 28 28 28 29 31 33 35 36 37 36 34 34 35 35 36 35 34 34 34 33 32 30 28 27 26 26 26 29 31 32 33 33 31 30 33 34 35 37 38 41 48 54 55 59 71 81 81 73 65 61 66 77 86 91 97 98 95 96 100 100 101 101 91 68 45 29
25 25 25 26 26 27 28 28 28 28 27 27 27 28 29 30 30 30 29 30 32 34 36 36 37 38 38 37 36 34 33 34 34 34 35 35 35 35 32 29 27 25 24 25 25 26 28 29 28 28 26 24 26 29 32 34 35 36 37 41 46 53 60 67 69 67 63 62 65 76 88 92 91 94 99 99 99 99 100 102 98 80 56 38 27
25 25 26 26 27 27 28 29 30 30 30 31 32 33 35 35 33 32 33 35 37 39 40 40 40 39 37 36 34 33 31 31 31 32 34 35 35 33 29 25 24 26 27 26 26 26 26 24 23 21 20 21 25 32 40 45 43 43 45 44 46 56 67 68 66 69 72 73 76 84 94 97 95 95 99 100 99 99 101 101 91 69 47 33 24
27 27 26 27 28 29 30 32 33 34 35 36 37 39 39 38 37 37 38 40 41 42 43 42 40 39 37 36 34 32 31 30 31 32 34 34 33 29 25 23 24 26 27 26 25 24 23 22 20 18 22 30 38 50 69 80 76 74 73 63 52 55 62 68 78 88 86 81 82 89 94 98 98 98 99 99 99 101 101 95 80 58 41 30 21
31 30 29 28 28 30 33 36 38 39 40 41 41 42 42 41 41 40 40 42 43 42 41 39 38 37 37 36 35 33 32 30 31 32 33 32 30 26 23 23 24 26 27 25 23 22 21 19 17 18 25 35 42 56 78 92 93 95 98 88 75 69 65 67 81 92 88 84 86 91 96 101 101 98 99 100 100 101 97 86 68 51 37 26 16
37 36 34 32 31 32 34 36 39 41 43 43 43 43 43 43 43 42 42 41 40 38 37 36 36 36 36 35 34 32 31 30 30 30 30 28 26 24 24 25 26 27 26 23 21 20 18 15 15 19 25 32 44 63 85 97 97 100 102 97 90 84 76 74 80 83 83 87 89 89 94 101 101 98 100 101 100 98 89 74 59 45 32 20 11
45 43 42 41 40 40 40 42 44 45 46 47 46 45 45 46 45 44 42 39 37 36 36 36 35 33 32 31 30 29 29 29 28 28 27 25 23 24 25 26 27 26 24 21 19 17 15 13 15 19 27 42 61 81 96 100 98 99 101 97 93 89 85 84 85 85 87 93 94 92 95 99 98 98 101 101 99 93 80 64 50 36 23 14 9
52 48 46 47 48 50 51 51 51 51 50 50 49 48 49 50 48 45 42 39 37 35 32 28 26 24 23 23 24 24 25 25 25 26 25 23 21 23 25 27 27 24 21 19 17 14 14 18 23 30 46 66 81 91 97 98 96 97 99 95 93 92 87 83 84 89 92 93 93 93 96 97 98 100 100 97 93 84 69 53 39 27 16 11 8
59 56 54 54 55 58 59 58 57 57 56 56 56 55 55 55 51 46 41 37 32 26 21 17 15 14 15 16 18 20 21 23 24 25 25 23 24 26 26 26 25 22 19 18 17 17 21 29 34 43 58 70 73 77 85 90 90 92 94 91 87 88 85 83 87 95 97 95 94 95 97 99 100 100 97 91 84 72 56 41 29 19 13 9 7
64 64 64 63 64 66 68 66 65 64 64 64 63 62 60 55 48 42 38 33 26 20 16 13 12 11 11 13 16 19 22 24 26 28 28 28 29 29 27 25 22 20 19 19 20 24 31 35 39 51 66 72 72 78 86 89 90 94 97 94 92 92 93 94 96 97 96 96 98 99 99 100 100 98 92 84 73 58 43 30 21 15 11 9 7
68 68 69 70 70 72 73 72 70 68 68 67 66 62 57 51 43 38 34 29 22 17 14 12 12 12 12 14 17 20 22 26 30 32 32 32 31 30 28 24 21 20 19 17 18 25 30 33 41 59 74 80 85 90 94 96 99 101 98 95 95 97 98 98 96 93 93 97 100 100 98 99 99 94 85 74 60 46 33 22 16 13 11 9 8
71 71 73 75 77 78 78 76 72 70 69 67 64 58 52 45 38 33 29 24 20 17 14 13 13 14 15 17 21 23 25 28 32 33 33 33 31 29 26 24 25 28 29 27 27 31 33 36 51 74 89 93 96 97 97 99 101 100 96 96 96 95 94 93 92 92 93 95 97 97 95 95 93 85 73 60 46 33 23 18 15 13 11 9 9
77 77 78 80 84 86 85 81 76 72 68 64 59 54 47 39 32 26 24 23 21 18 15 14 15 18 20 23 26 28 29 29 30 30 30 29 29 28 27 28 34 40 42 40 41 44 43 44 56 75 87 93 96 96 95 96 94 88 87 89 90 88 88 89 89 92 93 94 96 96 94 88 80 70 57 45 34 25 20 17 15 13 11 10 10
81 82 82 86 90 92 89 82 75 69 63 59 54 48 40 32 26 22 22 24 23 18 16 18 20 23 26 29 31 32 32 30 28 26 26 26 26 25 26 31 38 44 47 48 48 49 47 47 52 60 67 75 81 83 85 88 89 87 88 90 90 88 89 89 91 93 95 96 96 92 83 73 63 52 42 34 26 21 19 16 14 14 13 11 10
82 85 86 89 91 88 81 73 65 60 57 55 50 43 34 28 25 24 25 26 23 19 20 24 25 25 27 29 31 33 34 31 27 24 23 23 24 24 27 33 40 46 51 54 54 52 50 49 49 53 59 68 76 80 83 88 91 92 94 95 94 92 93 93 94 93 92 89 85 78 68 59 50 41 34 29 23 19 18 16 15 15 14 12 11
84 85 87 87 83 76 70 65 61 58 55 51 46 40 36 34 34 34 32 29 25 24 26 28 26 24 23 23 25 28 29 27 25 23 21 22 24 25 26 31 39 47 55 59 61 61 60 57 54 56 62 71 79 84 88 91 90 88 89 90 90 90 91 89 87 84 81 77 74 67 58 50 42 34 28 23 20 17 17 17 16 16 15 13 12
91 89 87 85 80 73 68 66 63 58 54 50 46 44 43 43 40 37 33 30 28 29 30 28 24 22 21 20 20 22 24 24 24 22 21 24 27 29 29 34 42 51 58 63 68 73 75 74 74 76 79 81 81 81 83 83 80 78 81 84 85 84 83 80 78 77 76 72 67 59 49 41 36 32 26 21 19 18 18 17 18 17 16 14 13
98 94 89 85 82 78 77 75 68 61 56 54 52 48 45 41 37 34 33 32 31 30 29 26 23 23 23 22 23 25 27 29 31 32 31 33 36 38 39 42 47 54 62 71 80 87 90 92 94 97 97 93 85 78 76 76 74 75 80 83 80 79 80 79 77 76 73 66 60 54 48 41 35 29 23 20 19 20 20 19 19 18 17 15 14
101 99 96 91 84 80 82 82 74 65 62 60 56 48 41 38 36 35 35 34 32 30 29 28 27 28 29 30 32 35 37 41 48 53 53 49 47 49 51 52 55 64 77 88 95 98 99 99 99 100 101 98 91 82 79 81 82 82 82 81 78 78 81 81 77 74 69 63 57 53 48 41 32 25 22 23 23 22 22 22 20 18 17 16 14
Wind_Speed
22 22 22 22 21 21 20 20 20 19 19 19 18 19 19 19 20 20 19 19 19 19 20 19 19 19 19 19 18 18 18 17 17 17 16 16 16 16 15 15 14 13 13 12 11 11 11 11 12 13 13 13 15 18 19 19 19 19 18 18 18 19 19 18 17 16 15 16 17 17 18 19 20 21 21 23 25 27 29 30 31 33 33 34 34
22 22 22 22 21 21 21 21 20 20 19 19 19 19 19 20 20 20 19 20 20 20 20 20 20 21 21 20 20 20 20 20 19 18 18 18 18 18 17 16 16 15 14 14 13 12 12 12 13 14 14 14 15 17 19 20 20 21 21 21 21 20 19 18 17 16 16 16 16 17 18 18 19 21 22 24 25 27 30 31 33 34 34 35 34
21 22 22 22 22 22 22 21 21 20 19 19 19 19 19 19 19 19 19 19 20 20 20 20 20 21 22 22 21 21 21 21 21 20 20 20 20 20 19 18 18 17 16 15 14 14 13 13 13 14 15 15 16 17 18 20 21 21 22 22 22 22 20 19 19 19 18 17 16 16 17 18 20 22 24 25 27 28 30 32 34 34 35 36 35
22 21 21 21 23 23 22 22 21 20 19 19 20 20 20 19 19 19 19 19 19 20 20 20 19 20 21 22 23 23 23 23 23 22 22 22 22 22 21 20 19 19 18 17 16 15 14 14 14 14 15 15 16 17 18 20 21 21 21 22 24 23 21 20 20 21 21 20 19 18 18 19 21 22 25 27 29 30 31 33 34 34 35 36 35
24 22 21 23 23 23 22 22 20 19 20 20 20 20 20 19 19 19 19 19 19 20 20 19 18 19 20 21 23 24 24 24 24 24 23 23 23 23 22 21 21 20 19 18 17 16 16 16 15 15 15 16 16 17 18 19 20 21 21 22 24 24 21 20 21 22 23 24 24 23 22 22 23 24 26 28 30 32 33 34 34 34 35 36 36
25 23 23 24 23 22 21 21 19 19 20 21 21 21 20 19 19 19 19 19 19 19 19 18 17 17 19 20 21 23 24 24 24 24 24 23 23 23 23 23 22 22 21 20 19 18 17 17 16 16 16 17 17 18 19 20 20 21 21 22 23 24 22 20 21 23 25 28 28 28 27 26 26 27 28 30 31 33 34 35 35 34 35 36 36
26 25 25 25 24 22 21 20 19 20 21 22 21 21 21 20 19 19 19 19 19 18 18 17 15 15 15 16 17 19 21 23 23 24 24 23 23 23 24 23 23 23 22 21 21 20 19 18 17 17 17 18 18 19 20 21 21 21 22 22 22 24 24 23 23 25 27 29 30 30 29 29 28 29 30 32 33 34 35 35 34 33 33 35 35
27 27 28 27 25 23 22 22 22 22 22 23 22 21 21 20 19 20 19 18 17 17 16 15 14 13 13 13 14 15 16 17 18 19 21 21 22 22 23 24 24 24 23 22 22 22 21 20 19 18 18 19 20 20 21 22 22 22 22 23 22 23 25 26 27 28 28 29 30 31 30 30 30 31 32 33 35 36 35 34 33 32 32 34 34
27 28 29 30 27 25 24 24 24 24 24 23 22 21 21 21 21 20 19 17 16 16 16 15 14 13 12 11 12 12 12 13 14 15 17 19 20 20 22 23 24 24 24 23 23 23 23 23 21 20 20 20 21 22 22 23 24 24 24 24 23 23 24 27 28 29 30 30 30 31 31 31 32 33 34 34 35 36 35 33 32 32 33 34 34
25 26 28 30 30 28 27 26 25 25 25 23 23 22 22 22 22 20 18 17 16 16 16 16 14 13 12 11 11 11 11 11 12 13 15 17 19 19 20 22 23 24 24 24 24 24 24 24 24 23 22 22 22 23 24 24 25 27 26 25 25 25 25 26 29 30 32 32 32 32 33 33 34 35 35 36 36 36 35 33 33 33 34 35 34
22 23 25 28 30 29 28 27 27 26 26 24 24 23 24 23 22 20 18 17 17 17 18 17 15 14 13 12 12 11 11 12 12 14 16 17 19 20 20 21 23 24 24 25 25 25 25 25 26 25 24 23 23 25 26 26 26 28 29 27 26 27 27 28 30 32 34 35 36 36 35 35 35 36 37 38 38 37 36 35 35 35 36 36 35
20 20 21 25 27 27 26 27 27 26 26 25 24 24 24 24 22 20 18 17 18 19 19 18 17 16 15 14 13 14 14 14 14 15 16 18 20 21 21 21 23 24 25 26 26 26 26 26 27 26 25 24 24 26 28 28 27 29 30 29 27 28 29 30 31 34 36 38 39 39 39 38 37 38 38 39 40 40 39 39 37 37 37 37 36
21 20 20 21 23 24 25 25 25 25 25 25 25 24 24 23 22 20 18 19 20 21 21 20 19 18 17 16 16 16 16 17 17 17 18 19 21 22 22 22 23 24 25 26 27 28 28 28 28 27 26 24 25 27 29 30 30 31 32 32 30 29 31 32 34 35 37 39 41 42 43 42 40 40 40 40 41 42 42 42 41 40 39 38 37
23 21 20 20 20 22 23 23 24 24 25 24 23 22 22 22 22 20 20 20 21 21 22 22 21 20 20 19 18 18 18 18 19 19 19 20 22 24 24 23 23 24 25 26 28 29 29 29 30 30 28 26 26 27 30 32 33 33 33 34 33 32 32 34 36 37 39 41 43 44 46 46 45 45 44 44 44 43 43 45 44 42 41 39 38
22 21 21 20 21 21 21 22 22 22 22 22 21 20 20 21 21 21 21 21 22 22 23 23 23 22 22 21 20 19 18 19 19 21 22 22 24 26 27 25 24 24 25 26 28 29 30 30 31 31 32 30 27 28 31 34 34 35 35 35 35 34 34 35 37 39 41 43 45 47 48 49 49 49 48 48 48 47 46 47 47 45 43 40 39
20 20 20 19 19 20 20 21 21 20 20 20 19 18 19 20 21 22 23 23 23 24 24 24 24 24 24 24 23 22 21 21 20 21 23 25 27 29 30 30 28 26 26 27 28 28 29 30 31 32 33 33 30 29 33 36 36 36 37 37 37 37 37 38 39 41 43 45 47 49 50 50 51 51 51 51 51 51 51 50 49 47 45 41 40
19 18 17 17 17 17 18 19 19 19 19 18 17 18 19 21 22 23 23 23 23 24 25 26 26 26 27 27 26 26 25 24 23 22 23 26 28 31 32 33 32 30 29 29 30 30 30 30 31 32 33 33 31 30 34 37 37 37 38 39 40 39 39 40 42 44 46 48 49 51 52 53 53 53 53 53 53 53 54 54 52 49 45 41 40
20 19 18 18 18 18 18 19 19 19 19 19 18 19 20 21 23 24 24 24 24 25 26 27 27 28 29 29 29 28 28 27 25 24 24 25 28 31 32 34 35 34 32 32 31 31 32 33 34 34 33 33 32 31 34 38 39 38 38 40 42 42 41 43 44 46 49 51 52 53 55 55 56 56 56 56 55 55 56 57 54 49 45 42 40
23 22 22 21 21 21 21 22 22 21 21 21 22 22 22 23 24 25 26 26 26 27 28 28 28 29 29 29 29 29 29 29 29 27 26 26 27 30 32 35 36 36 36 35 33 33 34 35 36 37 36 37 36 34 34 37 40 40 38 39 43 43 44 46 47 47 50 54 55 56 57 58 58 59 59 58 58 57 57 57 54 48 44 42 39
27 26 25 25 24 24 24 24 24 23 23 24 24 24 24 24 24 25 26 26 27 28 29 30 30 30 30 30 30 30 29 30 30 29 29 29 29 31 34 35 36 38 39 39 37 36 36 36 37 37 38 41 41 39 38 39 43 43 40 40 42 43 46 49 49 48 51 55 57 59 60 60 60 61 61 61 61 60 57 55 52 48 45 42 39
30 29 28 27 26 26 26 25 24 25 25 25 25 25 25 25 25 25 26 27 29 29 30 32 32 32 31 31 32 32 32 33 33 32 32 32 33 34 36 36 36 38 41 41 41 40 39 39 39 38 39 43 45 43 42 43 46 48 46 44 44 45 47 50 50 50 52 55 58 61 62 61 61 62 62 62 62 61 57 56 54 50 47 44 39
32 32 30 28 28 27 27 26 26 26 27 26 26 26 26 27 27 27 28 30 32 32 33 34 35 35 34 34 34 34 35 36 36 35 34 35 36 38 39 38 37 39 41 42 42 43 42 42 42 41 41 44 46 46 45 45 48 53 52 49 48 48 49 52 53 52 53 56 60 62 63 63 62 63 63 63 62 60 57 57 55 52 51 47 40
33 34 32 30 29 29 28 27 28 28 28 28 29 29 29 30 30 31 32 33 35 35 35 36 38 38 38 37 37 37 36 37 39 38 36 37 39 40 40 40 39 41 43 43 43 44 45 45 46 46 45 46 47 47 47 46 49 53 54 52 51 51 52 54 55 53 54 57 60 62 64 65 64 64 64 63 62 61 60 57 53 52 54 48 38
33 34 34 33 31 30 29 29 29 30 31 32 32 32 33 34 34 35 36 37 39 39 39 39 40 40 40 40 40 40 40 40 41 41 39 38 39 41 43 43 43 43 45 46 46 46 47 48 49 49 49 49 49 48 49 49 50 53 56 55 54 54 54 55 56 54 53 55 56 57 62 65 65 63 62 61 60 59 58 56 51 49 51 44 35
34 34 35 34 33 32 31 30 31 32 34 35 36 37 37 38 39 39 40 42 43 42 42 42 41 41 41 42 43 43 44 44 45 45 43 40 41 43 45 48 49 48 47 47 48 50 50 51 52 53 51 51 51 50 50 50 50 53 56 58 58 57 56 56 55 54 53 53 53 55 59 61 61 59 59 61 61 59 58 58 53 49 47 40 33
35 35 35 35 35 34 34 33 34 35 37 38 39 40 41 42 43 43 44 44 44 44 43 43 43 43 43 44 45 46 47 48 48 48 47 44 45 47 48 51 53 53 50 48 49 50 52 54 56 57 55 53 53 53 53 53 53 55 57 58 58 58 57 57 57 56 55 54 54 56 59 57 57 58 58 59 60 60 60 60 57 52 46 38 32
36 36 36 36 36 37 37 37 38 39 40 41 42 43 44 45 46 46 46 45 44 44 44 44 44 45 45 46 47 48 49 50 50 50 50 49 48 50 52 53 54 54 53 52 50 51 54 57 59 61 62 60 57 57 57 58 59 60 61 62 61 58 57 58 57 57 57 55 55 59 59 57 57 60 58 56 58 58 57 58 58 56 48 38 32
38 38 38 38 38 39 40 40 41 42 43 44 45 46 46 47 47 46 46 45 45 45 45 45 46 47 48 49 49 50 51 51 51 52 53 53 52 53 54 54 53 53 54 54 54 55 57 59 62 64 65 64 60 58 58 59 61 63 64 65 63 60 58 58 58 57 56 56 59 62 61 58 59 59 54 53 55 55 53 55 59 57 47 36 32
39 39 40 40 40 40 41 41 42 43 44 45 46 46 46 46 46 46 45 45 46 46 47 48 48 49 50 51 51 51 52 52 52 54 56 56 55 55 55 54 54 54 54 55 58 60 61 63 65 66 67 67 65 62 61 61 61 63 64 64 64 64 64 64 63 61 59 61 65 67 65 63 62 58 53 52 53 53 54 57 59 55 44 34 32
40 40 41 41 41 42 42 43 43 43 44 45 46 46 46 46 46 47 47 47 48 50 50 51 51 51 51 52 51 52 53 53 54 56 57 58 57 56 56 56 56 56 56 59 62 64 65 67 69 69 70 71 71 70 68 66 66 67 67 66 66 67 69 67 65 63 63 65 67 67 67 66 62 57 54 52 51 53 57 59 58 51 40 32 31
41 41 41 42 42 43 44 44 45 45 46 47 47 47 48 48 49 49 50 51 51 52 51 50 49 49 50 51 51 52 53 54 55 57 58 59 60 59 59 59 58 58 58 61 64 67 68 70 71 71 73 75 76 75 74 73 74 74 73 72 71 71 72 71 68 67 66 64 64 65 66 65 60 56 56 53 50 54 60 59 53 44 35 30 30
41 42 43 43 44 45 46 46 47 47 48 49 49 49 49 50 51 51 51 51 51 50 49 48 47 48 49 50 52 53 54 55 57 59 60 61 63 64 63 63 63 61 59 61 65 67 68 70 71 72 73 74 75 76 76 76 77 77 77 76 75 75 74 72 70 68 65 63 63 64 65 64 61 58 57 54 51 56 60 56 46 36 30 29 29
42 42 43 44 45 46 47 47 48 49 49 50 50 50 50 50 50 50 49 48 48 48 48 48 49 49 49 51 53 55 56 58 59 60 62 64 65 66 66 66 66 64 62 63 65 66 67 68 69 71 73 74 75 77 78 77 77 78 78 76 75 75 73 71 69 67 66 67 69 69 69 67 62 58 58 56 54 57 57 49 37 31 29 29 29
41 42 42 43 44 45 47 48 49 50 50 50 50 50 50 49 49 49 48 47 47 47 48 49 50 51 53 55 57 59 60 61 62 63 64 64 65 66 67 68 67 65 63 63 64 64 64 65 66 69 72 74 77 80 82 82 82 81 78 76 77 76 74 73 73 72 71 70 69 68 70 67 59 55 55 54 53 55 53 42 32 29 29 29 29
43 43 43 43 44 46 47 49 50 51 51 51 51 50 50 49 49 48 48 47 47 48 49 51 52 55 56 58 60 62 63 64 65 65 65 66 66 66 67 68 66 62 60 60 61 62 63 64 65 68 70 73 77 82 85 86 86 84 80 77 76 76 73 71 70 69 66 63 61 62 66 65 58 53 52 50 49 51 47 37 30 29 29 29 29
45 45 45 45 46 48 49 51 52 52 52 52 51 51 50 50 49 48 48 49 49 50 52 54 56 58 60 61 62 64 65 66 66 67 67 67 67 67 68 67 64 60 58 58 60 61 63 64 66 68 70 73 76 79 81 82 81 81 79 75 73 72 69 64 61 59 57 57 60 63 65 61 55 50 48 48 49 46 39 33 30 28 28 29 29
47 47 47 48 49 50 51 52 53 53 53 52 52 51 50 50 50 51 51 51 52 53 55 57 60 61 62 63 64 65 66 67 67 68 68 68 69 69 69 66 63 60 58 58 59 61 62 63 67 70 72 74 75 74 75 76 75 73 71 67 63 63 62 59 55 54 58 63 66 64 58 51 46 45 47 48 46 39 32 30 30 29 28 29 29
47 47 48 49 49 51 51 52 52 52 52 52 52 51 51 51 52 52 53 53 54 56 58 59 60 61 61 62 64 65 67 67 67 68 68 68 69 68 65 61 59 58 57 56 57 59 59 61 66 70 72 75 73 69 69 72 70 66 62 59 56 56 57 57 55 56 63 69 66 56 48 44 42 44 46 46 40 33 30 30 30 29 29 29 28
47 47 47 48 48 49 50 51 51 52 52 52 52 52 53 53 53 54 54 55 55 56 56 57 58 58 59 60 60 61 62 62 63 63 63 63 63 61 58 57 56 56 54 53 54 56 57 60 65 68 70 69 65 61 63 65 60 54 50 48 49 50 51 53 54 56 61 63 57 48 44 45 44 43 43 40 35 31 30 29 29 29 29 28 27
47 46 46 47 48 49 50 50 51 52 52 52 53 54 54 54 53 53 53 52 52 52 52 53 53 54 54 55 56 57 57 58 58 58 57 58 57 56 54 54 54 52 51 51 52 54 56 59 62 63 62 59 52 48 49 47 41 40 40 38 39 43 46 47 47 47 49 50 47 45 45 46 43 40 37 35 32 30 28 28 29 30 30 28 26
48 47 47 47 48 49 49 50 50 50 50 51 53 53 53 52 51 51 49 49 48 48 48 49 49 50 51 52 53 54 54 55 55 55 54 54 54 52 51 50 50 50 49 50 51 53 55 56 57 55 52 46 35 27 25 24 21 23 28 33 35 40 43 43 40 38 40 42 42 42 43 41 37 34 32 31 30 28 27 28 30 30 29 27 26
49 49 49 48 48 49 49 50 50 50 50 51 51 52 51 50 49 48 47 47 47 47 47 47 48 49 50 51 52 52 52 52 52 51 50 50 50 49 48 48 48 47 47 48 50 51 51 53 53 48 40 31 19 11 15 23 23 21 27 39 46 45 42 40 38 37 38 38 37 37 36 33 31 30 30 29 27 27 26 28 30 29 28 27 27
50 50 50 50 49 49 50 52 52 52 52 51 51 50 49 47 47 47 47 47 47 48 48 48 48 49 50 51 52 52 52 51 50 48 48 47 47 46 46 47 47 47 46 46 48 48 47 48 48 41 36 33 26 23 30 39 41 37 33 38 44 42 39 38 38 37 35 33 32 31 30 29 29 29 29 27 26 27 28 28 28 28 28 28 28
50 51 51 51 51 52 52 52 52 52 52 51 49 48 47 46 46 47 47 47 47 48 48 48 48 50 51 51 51 51 51 50 48 46 45 45 45 45 45 45 46 46 44 43 44 45 44 45 42 33 31 30 25 27 32 33 34 34 31 32 35 36 37 37 35 32 29 28 28 28 28 28 28 28 27 26 26 27 28 28 28 28 29 28 28
51 52 52 52 53 53 53 52 52 51 50 48 47 46 47 47 47 47 48 48 49 49 49 49 49 50 50 50 50 50 49 49 47 45 44 44 44 44 43 43 44 44 42 40 39 39 39 40 37 29 25 23 16 14 17 18 19 24 28 29 29 30 29 27 26 26 26 26 27 27 28 27 26 26 26 26 26 27 28 28 28 28 28 28 28
51 53 53 53 53 52 51 50 49 47 46 46 46 46 47 47 48 48 49 50 50 50 49 49 50 50 49 49 49 49 48 48 47 45 44 44 44 43 42 42 42 42 40 39 37 36 36 38 37 34 32 33 32 29 25 21 18 18 20 20 21 21 21 22 24 25 26 27 27 27 26 26 25 26 27 27 27 28 28 28 27 28 28 29 29
51 52 53 52 51 50 49 47 46 45 45 45 46 47 48 48 49 50 50 51 51 50 50 49 49 49 48 47 47 48 48 48 46 45 43 42 42 42 42 41 42 41 40 39 38 37 36 36 36 36 36 36 34 28 20 16 17 18 18 19 20 20 21 24 26 27 27 27 26 25 26 26 26 27 28 28 27 27 27 27 27 28 28 28 28
52 52 52 51 50 49 48 47 46 45 46 47 48 48 50 50 51 52 53 52 52 51 50 49 49 48 47 46 46 47 47 47 45 44 43 42 42 42 41 41 41 41 40 40 39 38 36 36 36 37 37 35 30 25 21 20 21 21 21 22 22 23 24 26 27 28 27 27 26 26 27 28 28 28 28 28 28 27 27 27 28 28 28 28 29
56 54 53 52 52 51 50 48 47 46 47 47 48 49 51 52 53 53 53 52 51 50 49 48 47 46 45 45 45 45 46 46 45 43 42 42 42 42 41 41 40 40 41 40 38 35 34 33 31 31 33 33 29 25 24 24 24 24 25 25 25 26 27 28 28 27 27 28 29 29 28 28 28 29 28 28 28 28 28 28 28 28 28 28 29
60 58 56 56 56 55 52 50 49 48 48 48 49 50 51 51 51 50 50 50 49 49 48 47 46 45 44 44 44 44 44 44 43 42 42 42 43 42 41 41 40 41 40 38 34 31 30 26 21 20 26 31 31 28 28 28 28 27 27 27 27 28 29 28 28 28 29 30 30 30 29 29 29 30 29 29 28 28 29 28 28 28 29 29 29
61 58 57 58 58 56 53 51 51 50 49 49 49 49 49 49 49 48 48 48 48 47 47 46 46 45 44 43 43 43 43 43 42 42 42 42 42 42 40 39 39 39 36 33 30 31 31 26 21 22 28 34 34 32 31 30 29 28 28 28 29 30 30 29 29 30 31 31 31 32 32 31 30 30 30 29 28 28 29 29 30 30 30 30 30
Wind_Direction
226 229 233 235 238 240 241 242 244 244 246 247 249 252 256 259 262 265 266 266 265 263 261 261 261 262 262 262 263 266 268 271 273 276 278 283 285 279 271 266 262 260 262 265 271 280 290 298 305 310 317 331 345 348 346 344 342 343 343 343 342 337 332 330 329 330 330 329 328 324 318 315 314 316 318 319 321 323 324 325 325 325 325 324 325
228 230 232 235 238 241 242 243 244 245 247 248 251 255 260 262 265 268 269 270 270 269 266 263 261 261 263 264 264 266 269 271 273 274 275 277 279 279 272 266 263 261 260 263 268 275 284 292 299 305 312 323 336 342 341 340 339 338 338 340 342 339 335 334 333 333 333 332 330 326 320 317 316 316 317 318 320 322 322 323 323 323 323 322 323
234 236 237 239 240 243 245 247 248 249 249 251 255 260 263 265 268 269 270 272 274 275 273 269 265 260 260 262 264 265 267 270 272 273 273 273 274 275 272 266 262 261 260 261 264 271 279 286 293 299 306 315 324 331 334 335 336 336 336 336 338 336 332 333 335 334 332 330 328 326 322 319 318 318 318 318 319 320 319 320 320 321 321 321 321
237 241 244 245 245 246 248 250 252 254 254 256 260 264 267 269 271 272 273 275 276 276 275 273 270 264 261 261 261 263 264 266 269 270 270 270 270 271 271 267 262 260 260 259 260 265 272 279 284 291 298 306 313 319 324 329 331 334 335 335 335 333 327 328 333 334 333 330 325 323 320 318 318 317 316 316 316 316 316 316 318 320 320 319 319
238 241 245 248 249 249 251 253 255 256 258 261 265 269 272 273 275 276 277 279 279 279 278 275 271 266 262 260 259 260 262 264 266 268 268 268 269 270 270 268 263 260 260 259 258 259 264 270 275 282 290 297 303 308 313 320 324 327 330 333 334 332 325 323 331 336 337 335 331 326 321 318 317 316 315 314 314 314 313 314 316 318 318 318 318
243 244 247 250 252 253 254 256 257 258 259 263 267 270 273 275 276 277 278 281 282 281 280 277 273 268 265 263 262 261 262 263 264 265 266 266 268 269 270 269 265 261 260 260 260 258 259 264 269 275 283 289 294 299 304 310 316 319 322 326 331 331 325 320 327 335 338 338 336 332 326 321 319 319 317 315 315 314 313 313 315 316 317 318 318
249 251 253 254 254 254 255 256 256 256 257 261 264 268 272 273 274 274 277 281 281 279 278 275 273 270 267 267 265 263 263 264 265 266 266 266 265 266 268 267 265 262 260 261 263 263 261 262 266 271 275 280 285 291 296 302 307 312 314 318 324 328 325 320 321 326 332 335 336 335 331 324 320 319 319 318 318 317 316 314 313 314 316 317 318
250 252 253 254 253 251 252 252 252 253 255 258 263 266 270 271 271 272 275 276 275 274 271 267 266 267 266 266 267 268 269 270 271 271 270 268 266 265 265 264 264 262 261 261 264 266 266 265 264 266 268 272 278 283 289 295 300 305 308 311 315 320 323 322 320 319 322 328 331 332 331 328 323 320 321 322 322 322 320 317 314 314 316 317 317
247 248 248 250 250 246 244 246 248 251 253 256 261 264 265 266 266 268 270 269 267 266 263 259 260 262 261 263 269 273 277 279 279 277 274 272 270 266 264 263 262 262 261 261 262 266 269 269 266 264 264 266 272 277 283 289 295 299 302 305 309 313 317 320 320 318 318 321 325 327 328 328 326 324 324 325 326 326 323 319 315 314 316 317 317
246 245 244 244 245 243 241 242 245 249 251 254 257 259 260 261 262 264 264 261 261 260 256 255 257 256 258 262 268 272 278 282 282 280 277 275 273 269 266 264 263 262 260 260 261 264 267 270 269 267 266 266 268 273 277 282 290 295 298 301 304 308 312 315 316 316 316 317 320 322 323 325 325 325 326 326 326 327 325 321 317 316 316 317 317
247 245 243 242 243 244 244 245 247 249 250 252 255 256 257 258 259 260 258 256 256 254 253 253 253 253 257 262 265 268 273 277 281 282 281 279 277 274 270 266 264 262 260 259 260 262 264 267 270 270 270 269 269 270 273 278 285 290 294 298 301 304 307 310 312 312 313 315 316 318 320 321 323 324 325 325 325 326 324 321 319 317 317 317 316
250 248 245 243 244 247 248 248 248 249 251 254 256 256 255 256 257 256 254 252 250 249 250 251 252 254 258 260 263 265 267 271 275 279 282 283 282 280 276 272 268 265 262 260 260 262 264 267 270 272 273 273 272 271 273 277 282 286 290 294 298 301 303 306 308 309 310 311 313 315 316 318 320 323 324 324 325 325 324 321 319 317 316 317 315
252 249 247 247 247 247 248 248 248 250 253 257 259 256 255 255 255 254 252 249 247 247 249 252 254 258 261 261 261 263 264 267 270 273 277 281 282 282 280 277 274 271 268 266 265 265 266 268 271 274 275 274 274 274 275 277 281 283 287 291 295 299 301 303 305 306 307 308 310 312 313 314 316 318 320 321 323 324 324 322 318 316 314 315 314
250 247 245 245 244 243 244 246 248 251 254 257 259 258 255 253 254 254 252 250 249 249 250 253 257 261 263 264 264 265 266 267 268 270 272 276 280 282 282 281 279 278 275 273 271 271 270 271 272 274 274 273 273 276 277 277 279 282 284 288 292 296 299 300 301 302 303 305 306 307 309 310 311 313 314 316 318 319 321 322 319 315 312 312 312
247 245 243 241 240 240 243 246 249 251 253 254 256 257 254 253 254 254 253 252 251 251 252 256 260 264 267 268 266 266 267 269 270 270 270 272 276 279 281 283 283 282 282 280 278 277 276 276 276 276 275 273 271 274 276 276 277 280 283 286 289 292 295 296 297 299 300 301 301 303 304 306 307 309 310 312 314 314 316 319 319 315 311 309 309
244 244 245 243 242 240 240 242 244 246 249 252 256 258 257 254 252 252 253 252 253 254 256 260 264 267 268 269 268 269 271 273 274 273 272 273 276 278 282 285 286 286 287 286 286 285 284 283 281 280 278 276 273 272 273 275 276 278 280 282 284 288 290 291 293 294 295 297 298 299 300 302 303 305 306 308 311 312 313 315 316 314 310 307 307
244 245 245 245 244 241 239 240 243 246 248 251 255 258 257 254 251 253 255 255 256 257 258 261 264 267 268 270 272 275 277 279 280 279 278 280 281 282 284 286 287 287 287 287 288 289 289 288 285 282 280 280 278 273 271 273 273 274 277 280 282 284 286 287 289 291 293 294 294 296 298 298 300 301 303 305 307 309 310 311 312 312 310 305 305
242 244 245 245 247 248 248 248 251 253 254 255 256 255 255 254 253 254 255 256 258 259 260 261 264 267 269 272 274 276 279 283 284 283 283 284 285 286 286 285 286 287 286 285 285 286 287 287 286 284 284 284 282 277 273 272 272 272 274 277 280 281 282 284 286 288 290 291 292 294 295 295 297 298 299 301 303 304 306 308 309 309 308 303 302
238 240 242 244 247 250 251 253 256 257 257 257 255 254 254 253 253 254 256 259 261 262 262 263 265 267 269 271 273 274 277 281 283 283 283 284 286 286 285 285 285 285 285 283 281 280 281 281 282 285 286 285 284 282 278 275 275 275 275 276 278 279 282 282 283 285 287 288 290 291 291 292 294 295 297 298 300 300 302 304 305 306 305 301 299
236 237 240 242 243 246 250 253 256 257 256 254 253 255 255 254 255 258 261 264 264 264 265 265 265 266 268 270 271 273 275 279 280 281 282 285 287 287 286 286 286 285 283 281 279 278 276 276 278 281 284 284 284 284 283 281 280 279 278 277 277 278 279 280 280 282 284 285 287 287 288 289 291 292 293 294 295 296 298 300 301 301 301 299 297
234 235 237 240 242 245 248 250 252 253 253 253 254 256 256 257 259 262 265 267 267 268 269 270 270 269 269 271 273 274 276 278 279 281 283 286 290 290 290 290 289 285 282 280 280 278 277 276 275 276 278 280 282 283 284 283 282 281 281 280 279 278 279 279 281 282 282 283 285 285 287 288 289 290 290 291 293 295 296 297 298 298 298 297 294
233 234 234 238 242 245 248 250 252 254 255 257 259 259 259 259 261 262 265 266 268 269 271 273 274 274 273 274 276 277 278 278 279 282 285 287 289 290 291 292 291 287 284 282 281 280 279 277 276 275 274 276 278 281 283 283 282 281 281 282 281 281 280 280 281 282 282 282 283 284 287 289 289 289 289 290 293 296 296 297 297 296 297 296 291
235 235 235 236 241 245 249 252 256 258 261 263 264 264 265 264 264 265 267 268 270 271 272 274 275 276 277 279 280 281 281 279 279 281 284 286 287 289 290 291 290 289 288 286 284 281 279 278 277 276 275 275 276 279 280 281 281 280 281 281 280 280 279 279 282 285 285 286 287 289 290 291 291 290 290 290 293 296 297 297 296 296 297 294 286
240 238 238 237 239 243 247 252 257 260 263 265 266 267 268 268 270 271 273 273 274 275 274 274 274 276 278 280 281 282 282 282 282 282 283 284 285 286 288 288 288 288 288 288 286 283 280 279 278 278 278 278 278 277 277 278 279 281 282 283 282 281 280 281 284 288 289 291 293 294 294 294 294 292 289 288 291 295 297 298 297 296 296 291 281
245 243 241 240 240 241 244 248 252 257 260 263 265 267 268 269 271 272 274 275 275 276 276 275 274 275 277 278 280 281 282 282 283 283 283 284 283 283 284 285 286 286 285 284 284 284 282 282 281 280 280 280 279 278 277 276 277 279 280 281 282 282 281 283 286 288 289 292 293 293 295 297 297 293 289 289 291 292 294 298 299 297 294 287 279
248 247 245 243 242 242 243 244 247 251 255 258 261 263 264 265 266 268 271 272 273 274 275 275 275 276 276 277 279 279 280 281 282 283 284 283 281 281 281 281 283 285 284 283 282 281 281 282 281 281 281 280 280 280 278 277 276 275 275 276 279 280 281 283 285 285 286 289 290 292 293 295 295 293 291 292 293 292 292 295 297 295 292 284 277
250 249 247 245 244 244 243 244 245 248 251 254 256 258 260 261 263 265 267 268 269 270 272 274 275 275 276 277 277 278 279 281 282 282 283 282 281 280 280 281 283 285 285 285 283 281 280 280 280 281 281 282 282 281 280 280 280 280 279 279 278 280 282 284 285 287 287 288 292 294 293 291 293 294 293 293 293 292 292 293 294 294 290 282 274
250 250 249 248 247 247 246 246 246 247 249 251 253 255 257 259 262 263 265 266 268 269 271 273 275 276 277 277 278 279 279 280 281 281 281 281 281 281 282 283 285 285 287 287 285 282 281 281 281 282 282 282 282 280 278 279 281 282 283 283 281 282 284 286 289 290 290 290 293 294 292 290 292 294 293 290 289 288 290 291 291 290 287 277 271
247 249 250 250 250 251 251 251 251 251 252 253 254 256 258 259 261 263 265 267 268 270 272 274 275 276 277 277 278 278 278 278 278 279 280 281 281 282 283 285 286 287 288 288 286 284 284 284 284 283 283 284 284 281 279 278 279 280 282 283 283 284 285 287 289 289 289 290 291 291 290 289 290 291 289 286 285 287 287 286 286 288 284 273 268
246 247 248 250 251 253 254 254 255 256 257 257 258 259 260 261 263 264 266 267 268 270 272 273 274 274 274 274 274 274 274 275 276 277 278 280 281 281 282 282 283 285 287 286 285 285 286 286 285 285 285 284 283 282 282 281 280 280 280 281 282 282 283 285 286 287 288 288 288 288 289 288 287 287 284 282 284 285 282 281 285 287 281 268 265
246 247 248 249 251 253 254 256 257 258 259 259 260 261 261 262 264 265 266 268 269 270 271 271 271 270 271 271 271 272 273 274 275 276 277 279 280 281 281 281 282 283 283 282 281 282 284 285 285 285 284 282 282 283 282 281 280 279 279 279 279 279 280 281 282 283 285 285 286 287 288 287 285 282 278 278 282 280 275 278 285 284 271 262 264
245 247 248 250 251 253 255 256 257 258 259 260 261 262 263 264 265 266 267 269 270 270 270 269 269 268 269 269 270 271 272 273 275 276 278 279 280 281 282 283 284 285 284 282 282 284 285 285 285 285 284 283 284 283 280 279 277 276 276 276 276 277 278 280 281 282 283 283 284 286 286 285 283 278 274 276 278 274 274 280 283 274 262 260 264
245 245 247 248 250 253 254 255 256 257 259 260 261 262 263 264 265 266 266 267 268 268 269 269 269 269 269 270 271 272 272 273 275 277 278 280 281 283 284 286 287 288 288 287 287 288 287 285 284 284 285 285 284 281 278 277 275 274 274 274 274 275 277 278 279 280 281 283 284 284 283 282 279 274 273 275 273 271 276 281 275 263 259 260 261
244 245 245 247 249 250 252 253 254 255 256 257 259 260 261 262 263 264 264 264 265 267 268 269 269 270 270 271 272 273 274 275 276 277 278 280 282 285 286 288 289 290 289 289 290 289 288 287 286 285 285 285 283 280 277 274 272 271 271 271 272 274 274 274 276 278 279 281 282 280 277 276 274 272 274 275 270 271 278 277 265 258 260 259 260
245 245 246 246 248 249 250 252 253 254 255 256 258 259 261 262 263 263 264 265 266 267 269 269 270 271 271 272 273 274 275 277 277 279 280 282 283 285 287 288 289 290 289 289 290 290 289 288 288 287 286 285 283 279 276 274 271 269 268 268 269 270 272 274 276 277 277 278 278 274 272 271 270 271 274 273 271 274 277 270 259 256 257 257 262
246 246 246 246 247 248 250 252 253 254 256 257 259 260 262 263 263 263 264 266 268 270 271 271 272 272 273 274 275 276 277 278 279 280 281 282 283 285 287 288 288 288 287 288 289 289 288 288 289 288 287 286 284 280 277 274 270 267 265 265 265 265 268 272 274 274 275 275 273 270 270 270 269 270 273 273 274 276 272 264 259 256 253 256 264
245 245 246 246 246 248 250 252 254 256 257 259 260 261 262 263 263 264 266 268 270 272 272 273 273 274 275 276 277 277 278 278 279 280 280 282 283 285 287 287 287 287 287 288 287 287 288 289 290 290 289 289 288 284 278 273 268 263 262 262 260 260 264 267 270 272 272 271 267 265 265 267 270 272 273 274 275 272 265 260 259 256 252 256 262
246 246 246 247 248 249 251 253 255 257 259 260 261 262 264 265 266 267 268 269 270 271 271 272 273 274 275 275 277 278 278 279 279 279 280 281 282 284 285 285 285 286 287 288 288 289 291 292 292 292 291 291 291 287 281 275 267 260 257 257 256 256 259 261 262 264 265 263 263 263 263 267 273 275 273 272 271 265 260 259 258 254 254 257 261
247 249 249 249 250 251 252 254 256 258 260 262 263 263 265 266 267 267 267 267 268 270 271 272 273 274 274 275 276 277 279 279 279 280 280 281 282 283 284 286 287 288 289 290 291 293 294 294 294 293 292 291 290 285 281 278 268 255 252 255 256 258 260 258 257 258 258 258 261 265 267 269 272 273 270 268 264 259 257 257 255 253 255 258 262
249 250 251 251 252 253 253 254 255 256 258 259 261 262 264 265 265 265 265 266 268 269 271 273 274 275 276 277 277 277 278 278 279 280 280 280 281 283 285 287 289 290 293 294 295 296 296 296 296 295 294 293 289 281 278 277 266 251 251 257 257 255 254 254 255 258 259 260 263 267 268 267 267 265 263 260 256 254 254 253 252 253 256 258 262
250 251 253 254 255 256 256 257 257 257 258 260 261 262 263 263 264 265 265 266 268 270 272 275 277 278 279 278 278 279 278 278 279 280 280 281 282 284 287 289 290 292 295 297 297 297 297 296 296 295 292 291 287 280 277 276 267 258 259 256 248 245 245 245 249 256 261 263 266 265 263 261 259 257 256 253 252 253 252 249 250 254 256 259 263
251 253 255 257 258 258 259 260 260 261 261 262 263 263 263 263 263 264 265 267 269 272 275 277 279 281 281 281 281 281 281 280 281 281 282 283 284 286 289 290 291 293 295 295 295 296 295 295 296 293 286 281 280 277 267 257 244 237 243 243 240 241 241 242 250 262 266 266 264 259 256 254 253 252 252 252 251 252 250 249 252 256 257 260 264
252 254 256 258 260 261 262 262 262 262 262 263 264 263 262 261 262 263 266 269 273 275 277 279 282 283 284 283 283 283 282 282 283 283 284 285 286 287 290 291 291 292 294 295 296 296 296 298 300 290 272 264 259 245 237 232 221 213 223 235 238 241 245 251 259 267 266 260 256 253 252 252 250 250 252 252 250 251 251 251 254 257 259 261 265
253 255 257 259 261 263 264 263 262 261 262 262 262 261 260 261 262 264 267 272 276 278 280 281 283 285 285 284 283 283 282 283 284 284 284 285 285 287 289 289 290 292 293 295 298 299 298 303 306 288 259 248 237 216 212 214 212 215 229 242 245 248 254 259 261 260 255 250 250 251 251 251 250 252 253 253 251 253 254 254 256 258 260 263 266
255 256 257 259 261 263 264 264 261 260 260 260 259 260 261 263 265 267 270 274 278 280 281 282 283 284 284 283 283 282 282 283 284 284 284 285 285 286 287 288 288 290 292 293 296 297 296 299 302 288 259 251 252 243 242 249 247 244 249 252 252 253 255 254 251 250 249 249 251 251 251 252 252 252 254 254 254 255 255 255 257 260 261 264 267
257 258 259 260 263 265 265 263 260 259 259 259 261 262 264 266 268 270 272 275 278 279 280 281 282 283 282 282 282 282 282 283 285 285 285 285 285 285 287 287 286 288 291 291 291 293 292 290 291 288 278 276 286 293 291 280 264 254 254 254 252 252 252 252 253 254 253 252 252 252 252 252 252 253 255 256 255 256 257 257 258 260 263 265 268
260 260 261 262 263 264 263 260 258 258 260 262 264 266 267 268 269 271 273 275 277 277 278 279 280 280 281 281 282 282 282 283 285 285 285 285 285 284 285 286 285 286 289 290 290 291 291 287 285 287 287 287 290 293 285 265 253 255 258 257 256 257 258 258 259 259 257 255 253 251 252 253 254 255 256 257 256 257 258 260 261 262 264 266 268
263 263 262 261 261 260 259 259 259 260 263 264 265 266 266 267 270 272 273 274 275 276 277 277 278 279 280 281 281 282 282 282 284 284 283 283 282 282 282 283 284 285 287 290 291 290 288 285 284 286 287 286 284 280 270 259 257 260 261 261 262 262 261 261 261 260 259 257 254 252 254 256 257 257 257 258 258 259 259 261 263 264 265 266 269
264 264 262 260 258 257 257 258 259 260 262 264 265 267 269 270 272 273 273 274 275 275 276 277 277 278 279 279 279 279 280 280 280 281 281 280 281 281 281 282 284 285 286 288 290 287 284 281 282 282 281 279 275 269 264 261 260 260 261 262 263 262 261 261 261 260 258 256 256 256 256 257 259 259 259 258 259 261 261 262 264 265 266 268 269
261 261 260 258 256 256 256 256 257 259 263 266 268 270 272 272 273 273 273 273 274 274 275 276 276 276 276 277 276 276 277 277 277 278 278 278 279 280 281 282 283 284 284 285 284 280 275 271 263 257 262 267 267 263 261 260 259 259 259 259 259 260 260 260 258 257 256 257 259 260 260 259 259 260 260 259 260 262 264 265 265 266 267 268 269
257 258 256 254 254 255 256 257 257 259 264 268 269 271 271 272 272 272 272 272 273 273 273 273 274 273 274 275 275 274 275 275 275 275 275 275 276 277 280 282 283 283 282 279 272 264 260 254 241 237 248 257 258 256 256 257 257 258 259 259 259 259 258 257 256 256 257 259 260 261 262 261 260 260 261 262 262 263 264 265 266 266 266 267 267